Regional Weather Roundup
Issued by NWS

Home | Current Version | Previous Version | Graphics & Text | Print | Product List | Glossary On
Versions: 1 2 3 4 5 6 7 8 9 10 11 12 13 14 15 16 17 18 19 20 21 22 23 24 25 26 27 28 29 30 31 32 33 34 35 36 37 38 39 40 41 42 43 44 45 46 47 48 49 50
597
ASUS43 KMPX 222001
RWRMN
WEATHER ROUNDUP FOR MINNESOTA
NATIONAL WEATHER SERVICE TWIN CITIES/CHANHASSEN MN
300 PM CDT FRI SEP 22 2017


NOTE: "FAIR" INDICATES FEW OR NO CLOUDS BELOW 12,000 FEET WITH NO
SIGNIFICANT WEATHER AND/OR OBSTRUCTIONS TO VISIBILITY. N/A MEANS
CURRENT SKY AND/OR WEATHER CONDITIONS ARE NOT AVAILABLE.

MNZ060>063-068>070-222100-
   Twin Cities Metro

CITY           SKY/WX    TMP DP  RH WIND       PRES   REMARKS
TWIN CITIES    MOSUNNY   93  72  50 S14G26    29.80F HX 101
ST PAUL        SUNNY     90  73  57 SE22      29.80F HX  98
CRYSTAL        SUNNY     91  69  48 S17G26    29.78F HX  96
BLAINE         MOSUNNY   91  72  52 S15G21    29.80F HX  98
LAKEVILLE      SUNNY     91  72  52 S10G18    29.81F HX  98
EDEN PRAIRIE   SUNNY     91  72  53 S20G25    29.79F HX  98
SOUTH ST PAUL  SUNNY     92  69  47 S15       29.80F HX  96
LAKE ELMO      FAIR      91  72  52 S17G24    29.83F HX  98
$$
MNZ001>005-007-008-013>017-022>024-027-028-222100-
   Northwest Minnesota

CITY           SKY/WX    TMP DP  RH WIND       PRES   REMARKS
BEMIDJI        CLOUDY    77  69  78 SE15G21   29.73F
HALLOCK          N/A     70  54  56 NE8       29.75S
ROSEAU         PTSUNNY   72  63  73 NE17      29.76F
WARROAD        CLOUDY    66  61  82 NE14G20   29.78F
CROOKSTON      PTSUNNY   79  66  65 E8        29.69F
FOSSTON        CLOUDY    79  68  69 SE15G21   29.71R
DETROIT LAKES  MOSUNNY   81  72  74 S21       29.71S
MOORHEAD       MOSUNNY   84  70  61 S13G23    29.65F
PARK RAPIDS    CLOUDY    81  73  76 SE16      29.73F
MAHNOMEN       CLOUDY    79  71  76 SE15      29.69F
$$
MNZ006-009>011-018-025>026-222100-
   North Central Minnesota

CITY           SKY/WX    TMP DP  RH WIND       PRES   REMARKS
BAUDETTE       CLOUDY    72  66  81 E13       29.77F
FLAG ISLAND    SUNNY     70  55  60 NE9       29.79F
INTL FALLS     MOSUNNY   75  65  70 NE13      29.78F
WASKISH        CLOUDY    82  66  57 SE9       29.74F
BIG FORK       CLOUDY    77  66  69 S9G20     29.79S
LONGVILLE      CLOUDY    75  70  83 SE7       29.77F
GRAND RAPIDS   CLOUDY    73  69  87 SE12G17   29.81F
CRANE LAKE     SUNNY     81  61  50 S7        29.83F
ORR            MOSUNNY   81  61  50 S8G17     29.78F
COOK           SUNNY     79  66  65 SE8G18    29.82F
WALKER         CLOUDY    74  69  84 SE6       29.75F
$$
MNZ012-019>021-037-222100-
   Northeast Minnesota

CITY           SKY/WX    TMP DP  RH WIND       PRES   REMARKS
DULUTH         CLOUDY    76  68  76 S15       29.86S
ELY            CLOUDY    77  63  61 S8        29.86F
HIBBING        CLOUDY    74  68  81 S9        29.83F
EVELETH        PTSUNNY   78  67  68 S12       29.85F
DULUTH HARBOR  PTSUNNY   72  66  83 N6        29.84F
TWO HARBORS    CLOUDY    77  68  73 W5        29.84F
SILVER BAY     CLOUDY    75  64  69 CALM      29.84F
GRAND MARAIS     N/A     68  63  84 CALM      29.88R
$$
MNZ029>031-032-039>041-046>048-054>057-064-222100-
   West Central Minnesota

CITY           SKY/WX    TMP DP  RH WIND       PRES   REMARKS
FERGUS FALLS   MOSUNNY   82  72  69 SE17      29.68F
WHEATON        SUNNY     88  68  51 S16G23    29.67S HX  91
MORRIS         SUNNY     90  70  51 S18G25    29.68F HX  95
ALEXANDRIA     CLOUDY    85  72  65 S21G30    29.75S HX  91
ELBOW LAKE     PTSUNNY   81  73  77 E13G23    29.70F HAZE
WADENA         MOSUNNY   82  72  69 SE20G25   29.72F
GLENWOOD       SUNNY     86  72  62 SE17G28   29.74F HX  92
APPLETON       SUNNY     91  68  46 S10G22    29.68S HX  95
BENSON         MOSUNNY   90  70  51 S15       29.71F HX  95
ORTONVILLE     MOSUNNY   90  70  51 N16G22    29.67F HX  95
MADISON        SUNNY     91  70  49 S18G25    29.68F HX  97
WILLMAR        FAIR      90  72  55 S14G22    29.73F HX  96
$$
MNZ033>034-036-042>043-049>051-058-059-222100-
   Central Minnesota

CITY           SKY/WX    TMP DP  RH WIND       PRES   REMARKS
ST CLOUD       CLOUDY    85  74  69 SE14G22   29.77F HX  92
SAUK CENTRE    FAIR      84  73  70 SE15G23   29.75F HX  90
PAYNESVILLE    CLOUDY    86  72  64 SE13G20   29.76F HX  92
AITKIN         SUNNY     79  72  78 SE15G21   29.78F
PINE RIVER     CLOUDY    73  68  83 SE12      29.79F
BRAINERD       PTSUNNY   83  72  69 S15G26    29.77F
STAPLES        PTSUNNY   82  72  69 S13G23    29.74F
LITTLE FALLS   PTSUNNY   82  66  57 SE14G20   29.77F
LITCHFIELD     MOSUNNY   90  73  58 SE9       29.76F HX  98
BUFFALO        SUNNY     90  71  52 SE13G21   29.79F HX  96
MAPLE LAKE     SUNNY     89  74  62 SE8       29.79F HX  98
HUTCHINSON     SUNNY     90  74  58 S13       29.79S HX  98
$$
MNZ037-044-045-052-053-222100-
   East Central Minnesota

CITY           SKY/WX    TMP DP  RH WIND       PRES   REMARKS
PRINCETON      MOSUNNY   90  73  58 SE13      29.80F HX  98
MORA           MOSUNNY   86  72  62 S14       29.83F HX  92
RUSH CITY      MOSUNNY   86  72  63 S9G17     29.82F HX  92
MOOSE LAKE     MOSUNNY   79  70  73 SE5       29.81F
HINCKLEY       MOCLDY    82  73  74 SE9       29.82F
CLOQUET        SUNNY     79  68  69 SE9       29.84F
MCGREGOR       CLOUDY    79  72  78 SE13G18   29.81F
$$
MNZ071>073-080-081-089-090-097-098-222100-
   Southwest Minnesota

CITY           SKY/WX    TMP DP  RH WIND       PRES   REMARKS
MONTEVIDEO     SUNNY     93  70  46 SW12G21   29.70S HX  99
GRANITE FALLS  SUNNY     93  72  50 S17G25    29.71F HX 101
CANBY          SUNNY     90  68  48 S15G23    29.70F HX  94
MARSHALL       SUNNY     92  71  50 SW24G30   29.70S HX  98
REDWOOD FALLS  LGT RAIN  92  68  45 S23G29    29.73F HX  96
OLIVIA         MOSUNNY   90  70  51 S18G25    29.73F HX  95
PIPESTONE      SUNNY     90  70  51 S17G28    29.74F HX  95
WINDOM         SUNNY     90  66  45 S18G35    29.77F HX  92
WORTHINGTON    SUNNY     90  70  51 S20G26    29.78S HX  95
JACKSON        SUNNY     90  68  48 S21G28    29.81S HX  93
TRACY          SUNNY     91  71  52 S21G26    29.74S HX  98
SLAYTON        SUNNY     89  67  47 S23       29.77S HX  92
$$
MNZ065>067-074>077-082>085-091>093-222100-
   South Central Minnesota

CITY           SKY/WX    TMP DP  RH WIND       PRES   REMARKS
MANKATO        SUNNY     91  71  51 S15G28    29.80S HX  97
NEW ULM        SUNNY     91  68  46 S18G31    29.76S HX  95
ST JAMES       SUNNY     93  68  43 S22G31    29.78F HX  97
FAIRMONT       SUNNY     92  72  51 S21       29.80F HX  99
GLENCOE        SUNNY     93  75  56 SE15G22   29.77F HX 104
FARIBAULT      SUNNY     91  70  49 SE22G32   29.83F HX  97
OWATONNA       SUNNY     91  70  49 SE20G29   29.84F HX  97
WASECA         SUNNY     91  70  49 S17G24    29.84F HX  97
ALBERT LEA     SUNNY     93  70  46 S17G24    29.86F HX  99
$$
MNZ078>079-086>088-094>096-222100-
   Southeast Minnesota

CITY           SKY/WX    TMP DP  RH WIND       PRES   REMARKS
ROCHESTER      SUNNY     90  67  46 S23G32    29.89F HX  93
RED WING       MOSUNNY   93  63  36 S14G20    29.82F HX  94
STANTON        SUNNY     92  70  47 S18G26    29.81S HX  97
DODGE CENTER   SUNNY     91  64  40 S25G31    29.88F HX  93
WINONA         SUNNY     95  64  36 S7        29.88S HX  97
AUSTIN         SUNNY     90  66  45 S18G30    29.88S HX  92
PRESTON        SUNNY     89  63  41 S21G26    29.92F HX  90
$$
ABBREVIATIONS USED IN REMARKS
   TC - TEMPERATURES IN CELSIUS
  WCI - WIND CHILL INDEX
   HX - HEAT INDEX
  VSB - VISIBILITY
$$




USA.gov is the U.S. government's official web portal to all federal, state and local government web resources and services.